Buffalo, MN

9:53 PM CST on November 18, 2017 (GMT -0600)
Buffalo

Weather History for KCFE - March, 2013

Change the Weather History Date:

Tuesday, March 12, 2013

  Actual Average (KMIC) Record (KMIC)
Temperature  
Mean Temperature 24 °F -  
Max Temperature 28 °F 34 °F 71 °F (2016)
Min Temperature 18 °F 17 °F -6 °F (2009)
Degree Days  
Heating Degree Days 42    
Moisture  
Dew Point 15 °F    
Average Humidity 70    
Maximum Humidity 82    
Minimum Humidity 51    
Precipitation  
Precipitation 0.00 in - - ()
Sea Level Pressure  
Sea Level Pressure 29.98 in    
Wind  
Wind Speed 9 mph (WNW)    
Max Wind Speed 20 mph    
Max Gust Speed 26 mph    
Visibility 10 miles    
Events Snow    
Averages and records for this station are not official NWS values.
T = Trace of Precipitation, MM = Missing Value Source: NWS Daily Summary

Daily Weather History Graph

Daily Weather History Graph

Search for Another Location

Airport or City:

Trip Planner

Search our weather history database for the weather conditions in past years. The results will help you decide how hot, cold, wet, or windy it might be!

Date:

Astronomy

Mar. 12, 2013 Rise Set
Actual Time 7:32 AM CDT 7:17 PM CDT
Civil Twilight 7:03 AM CDT 7:47 PM CDT
Nautical Twilight 6:29 AM CDT 8:21 PM CDT
Astronomical Twilight 5:54 AM CDT 8:56 PM CDT
Moon 7:35 AM CDT (3/12) 8:39 PM CDT (3/12)
Length of Visible Light 12h 43m
Length of Day
11h 44m
New Moon, 1% of the Moon is Illuminated
Mar 12
New Moon
Mar 19
First Quarter
Mar 27
Full
Apr 2
Last Quarter
Apr 10
New

Hourly Weather History & Observations

Time (CDT) Temp. Windchill Dew Point Humidity Pressure Visibility Wind Dir Wind Speed Gust Speed Precip Events Conditions
12:14 AM 21.4 °F 12.8 °F 15.8 °F 79% 29.84 in 10.0 mi WSW 6.9 mph - N/A   Overcast
12:34 AM 22.3 °F 13.9 °F 15.1 °F 74% 29.84 in 10.0 mi WSW 6.9 mph - N/A   Overcast
1:14 AM 22.5 °F 14.1 °F 14.0 °F 70% 29.84 in 10.0 mi WSW 6.9 mph - N/A   Overcast
1:34 AM 22.6 °F 13.4 °F 13.8 °F 69% 29.83 in 10.0 mi WSW 8.1 mph - N/A   Overcast
1:55 AM 22.3 °F 12.2 °F 14.2 °F 71% 29.83 in 10.0 mi WSW 9.2 mph - N/A   Overcast
2:14 AM 22.1 °F 13.7 °F 14.2 °F 72% 29.84 in 10.0 mi WSW 6.9 mph - N/A   Overcast
2:34 AM 22.1 °F 14.7 °F 14.5 °F 73% 29.84 in 10.0 mi WSW 5.8 mph - N/A   Overcast
2:55 AM 22.1 °F 13.7 °F 15.3 °F 75% 29.84 in 10.0 mi WSW 6.9 mph - N/A   Overcast
3:14 AM 22.1 °F 13.7 °F 15.8 °F 77% 29.84 in 10.0 mi West 6.9 mph - N/A   Overcast
3:55 AM 22.5 °F 12.4 °F 17.2 °F 80% 29.83 in 10.0 mi West 9.2 mph - N/A   Overcast
4:14 AM 22.1 °F 13.7 °F 17.4 °F 82% 29.83 in 10.0 mi West 6.9 mph - N/A   Overcast
4:34 AM 22.1 °F 14.7 °F 17.2 °F 82% 29.84 in 10.0 mi WNW 5.8 mph - N/A   Overcast
4:55 AM 22.1 °F 14.7 °F 16.7 °F 80% 29.84 in 10.0 mi WNW 5.8 mph - N/A   Overcast
5:14 AM 22.1 °F 12.8 °F 16.3 °F 79% 29.84 in 10.0 mi West 8.1 mph - N/A   Overcast
5:34 AM 21.9 °F 13.4 °F 16.3 °F 79% 29.85 in 10.0 mi West 6.9 mph - N/A Snow Light Snow
5:54 AM 21.9 °F 13.4 °F 16.3 °F 79% 29.86 in 10.0 mi WNW 6.9 mph - N/A   Overcast
6:14 AM 21.9 °F 12.5 °F 16.2 °F 78% 29.87 in 10.0 mi WNW 8.1 mph - N/A   Overcast
6:34 AM 21.9 °F 13.4 °F 16.2 °F 78% 29.87 in 10.0 mi NW 6.9 mph - N/A   Overcast
6:55 AM 21.7 °F 12.3 °F 15.8 °F 78% 29.88 in 10.0 mi WNW 8.1 mph - N/A   Overcast
7:14 AM 21.2 °F 11.7 °F 15.4 °F 78% 29.88 in 10.0 mi NW 8.1 mph - N/A   Overcast
7:34 AM 21.0 °F 12.4 °F 14.9 °F 77% 29.88 in 10.0 mi NW 6.9 mph - N/A   Overcast
7:55 AM 20.8 °F 13.2 °F 14.9 °F 78% 29.89 in 10.0 mi WNW 5.8 mph - N/A   Overcast
8:14 AM 21.2 °F 12.6 °F 14.9 °F 77% 29.90 in 10.0 mi WNW 6.9 mph - N/A   Overcast
8:34 AM 21.6 °F 13.0 °F 15.3 °F 77% 29.91 in 10.0 mi WNW 6.9 mph - N/A   Overcast
8:55 AM 21.6 °F 12.1 °F 15.1 °F 76% 29.91 in 10.0 mi NW 8.1 mph - N/A   Overcast
9:14 AM 21.4 °F 11.1 °F 14.7 °F 75% 29.92 in 10.0 mi WNW 9.2 mph - N/A   Mostly Cloudy
9:34 AM 21.9 °F 11.0 °F 14.5 °F 73% 29.93 in 10.0 mi WNW 10.4 mph 16.1 mph N/A   Scattered Clouds
9:55 AM 21.9 °F 10.4 °F 14.9 °F 74% 29.94 in 10.0 mi WNW 11.5 mph 17.3 mph N/A   Clear
10:14 AM 22.5 °F 11.7 °F 15.6 °F 75% 29.94 in 10.0 mi WNW 10.4 mph 17.3 mph N/A   Clear
10:34 AM 23.2 °F 13.3 °F 16.5 °F 76% 29.94 in 7.0 mi WNW 9.2 mph - N/A   Clear
10:55 AM 23.4 °F 12.8 °F 17.1 °F 77% 29.95 in 5.0 mi NW 10.4 mph 18.4 mph N/A Snow Light Snow
11:14 AM 23.9 °F 12.3 °F 17.4 °F 76% 29.96 in 5.0 mi NW 12.7 mph - N/A Snow Light Snow
11:34 AM 24.8 °F 12.4 °F 17.6 °F 74% 29.97 in 5.0 mi NW 15.0 mph 20.7 mph N/A Snow Light Snow
11:55 AM 25.3 °F 14.1 °F 17.6 °F 72% 29.97 in 10.0 mi WNW 12.7 mph 18.4 mph N/A Snow Light Snow
12:14 PM 25.9 °F 14.8 °F 18.5 °F 74% 29.97 in 7.0 mi NW 12.7 mph 16.1 mph N/A   Overcast
12:34 PM 26.4 °F 14.0 °F 18.1 °F 71% 29.98 in 7.0 mi NW 16.1 mph 19.6 mph N/A   Overcast
12:55 PM 26.4 °F 15.0 °F 17.6 °F 69% 29.98 in 10.0 mi WNW 13.8 mph 19.6 mph N/A   Overcast
1:14 PM 26.6 °F 14.7 °F 17.4 °F 68% 29.98 in 10.0 mi WNW 15.0 mph 18.4 mph N/A   Overcast
1:34 PM 27.1 °F 14.1 °F 17.8 °F 68% 29.98 in 10.0 mi WNW 18.4 mph - N/A   Overcast
1:55 PM 27.3 °F 15.6 °F 16.7 °F 64% 29.99 in 10.0 mi WNW 15.0 mph 21.9 mph N/A   Overcast
2:14 PM 28.0 °F 14.9 °F 15.6 °F 60% 29.99 in 10.0 mi West 19.6 mph 24.2 mph N/A   Mostly Cloudy
2:34 PM 28.6 °F 16.0 °F 15.8 °F 59% 29.99 in 10.0 mi West 18.4 mph 23.0 mph N/A   Mostly Cloudy
2:55 PM 27.9 °F 15.5 °F 15.4 °F 60% 29.99 in 10.0 mi WNW 17.3 mph 26.5 mph N/A   Overcast
3:14 PM 28.0 °F 16.5 °F 15.4 °F 59% 29.99 in 10.0 mi WNW 15.0 mph 24.2 mph N/A   Overcast
3:34 PM 28.0 °F 16.5 °F 14.9 °F 58% 29.99 in 10.0 mi NW 15.0 mph 20.7 mph N/A   Overcast
3:55 PM 28.2 °F 16.8 °F 15.1 °F 58% 30.00 in 10.0 mi WNW 15.0 mph 21.9 mph N/A   Overcast
4:14 PM 28.2 °F 17.2 °F 16.3 °F 61% 30.01 in 10.0 mi WNW 13.8 mph 21.9 mph N/A   Overcast
4:34 PM 27.9 °F 17.3 °F 16.0 °F 61% 30.01 in 10.0 mi NW 12.7 mph 21.9 mph N/A   Overcast
4:55 PM 27.9 °F 15.5 °F 16.7 °F 63% 30.02 in 7.0 mi WNW 17.3 mph 24.2 mph N/A Snow Light Snow
5:14 PM 27.9 °F 15.9 °F 15.6 °F 60% 30.02 in 10.0 mi WNW 16.1 mph 24.2 mph N/A   Overcast
5:34 PM 27.3 °F 16.1 °F 15.6 °F 61% 30.04 in 10.0 mi WNW 13.8 mph 18.4 mph N/A   Overcast
5:54 PM 27.3 °F 14.8 °F 14.9 °F 60% 30.04 in 10.0 mi WNW 17.3 mph 21.9 mph N/A   Mostly Cloudy
6:14 PM 27.3 °F 16.6 °F 14.4 °F 58% 30.05 in 10.0 mi NW 12.7 mph 17.3 mph N/A   Mostly Cloudy
6:35 PM 26.6 °F 17.5 °F 10.8 °F 51% 30.06 in 10.0 mi NNW 9.2 mph 17.3 mph N/A   Scattered Clouds
6:54 PM 26.4 °F 15.0 °F 10.2 °F 51% 30.07 in 10.0 mi NNW 13.8 mph 21.9 mph N/A   Clear
7:14 PM 25.5 °F 15.5 °F 10.6 °F 53% 30.09 in 10.0 mi NNW 10.4 mph 17.3 mph N/A   Scattered Clouds
7:35 PM 24.8 °F 15.3 °F 10.8 °F 55% 30.10 in 10.0 mi NNW 9.2 mph 18.4 mph N/A   Scattered Clouds
7:54 PM 24.6 °F 15.1 °F 10.6 °F 55% 30.11 in 10.0 mi NNW 9.2 mph - N/A   Scattered Clouds
8:14 PM 24.3 °F 14.6 °F 10.8 °F 56% 30.12 in 10.0 mi NNW 9.2 mph - N/A   Clear
8:35 PM 23.9 °F 15.0 °F 10.6 °F 57% 30.13 in 10.0 mi NW 8.1 mph - N/A   Clear
8:54 PM 23.2 °F 14.1 °F 11.1 °F 60% 30.14 in 10.0 mi WNW 8.1 mph - N/A   Clear
9:14 PM 23.0 °F 13.1 °F 11.8 °F 62% 30.15 in 10.0 mi WNW 9.2 mph - N/A   Clear
9:34 PM 22.3 °F 12.2 °F 14.0 °F 71% 30.16 in 10.0 mi WNW 9.2 mph - N/A   Clear
9:54 PM 21.9 °F 12.5 °F 14.0 °F 72% 30.17 in 10.0 mi WNW 8.1 mph 16.1 mph N/A   Clear
10:15 PM 21.2 °F 10.9 °F 13.8 °F 73% 30.17 in 10.0 mi West 9.2 mph - N/A   Clear
10:34 PM 20.7 °F 9.5 °F 13.8 °F 75% 30.18 in 10.0 mi WNW 10.4 mph - N/A   Clear
10:54 PM 20.3 °F 7.7 °F 14.0 °F 77% 30.19 in 10.0 mi WNW 12.7 mph 17.3 mph N/A   Clear
11:15 PM 19.6 °F 8.1 °F 14.0 °F 79% 30.19 in 10.0 mi WNW 10.4 mph - N/A   Clear
11:34 PM 19.0 °F 6.1 °F 13.8 °F 80% 30.20 in 10.0 mi WNW 12.7 mph 16.1 mph N/A   Clear
11:54 PM 18.7 °F 7.8 °F 13.6 °F 81% 30.21 in 10.0 mi WNW 9.2 mph 17.3 mph N/A   Clear